Location: Fort Lauderdale
(26.1220°N, 80.1440°W)
Time: 21:26:38
(UTC-04:00)

Hubble Space Telescope - Visible Passes

Search period start: 18 March 2019 00:00
Search period end: 28 March 2019 00:00
Orbit: 537 x 540 km, 28.5° (Epoch: 17 March)

Date Brightness Start Highest point End Pass type
(mag) Time Alt. Az. Time Alt. Az. Time Alt. Az.
18 Mar 3.7 05:05:00 12° ESE 05:05:00 12° ESE 05:05:19 10° ESE visible
18 Mar 2.6 06:40:22 13° WSW 06:42:08 16° SSW 06:44:43 10° SSE visible
19 Mar 2.9 06:30:53 12° SW 06:31:35 12° SSW 06:33:15 10° S visible
20 Mar 3.6 21:41:16 10° SW 21:41:21 10° SW 21:41:21 10° SW visible
21 Mar 2.9 21:30:34 10° SW 21:31:59 19° SW 21:31:59 19° SW visible
22 Mar 2.0 21:19:57 10° WSW 21:22:33 34° SW 21:22:33 34° SW visible
23 Mar 1.0 21:09:23 10° WSW 21:13:02 59° SSW 21:13:02 59° SSW visible
24 Mar 0.6 20:58:52 10° WSW 21:03:01 78° SSE 21:03:28 67° ESE visible
25 Mar 0.7 20:48:24 10° WSW 20:52:32 89° NNW 20:53:49 43° ENE visible
26 Mar 0.8 20:37:57 10° W 20:42:05 79° N 20:44:06 29° ENE visible
26 Mar 4.1 22:19:21 10° W 22:19:27 11° WNW 22:19:27 11° WNW visible
27 Mar 0.9 20:27:31 10° W 20:31:38 71° N 20:34:20 21° ENE visible
27 Mar 3.7 22:08:54 10° WNW 22:09:41 15° WNW 22:09:41 15° WNW visible
